www.pogodaiklimat.ru

Погода и климат >> Архив погоды >> Албания >> Vlore


ПОГОДА в Vlore

  • Прогноз погоды в Vlore
  • Монитор погоды в Vlore
  • Климат города

АРХИВ ПОГОДЫ в Vlore

Время (UTC), дата Ветер
(напр.,м/с)
 
Видим.   Явления Облачность Т
(С)
Тd
(С)
f
(%)
Тe
(С)
Тes
(С)
Комфортность P
(гПа)
Po
(гПа)
Тmin
(С)
Tmax
(С)
R
(мм)
R24
(мм)
S
(см)
12 15.11 ЮВ 10 20 км 8/8 1200 м
[Sc]
+19.4 +7.8 47 +19 +19 1013.7 1013.0
15 15.11 ЮВ 4 20 км 8/8 1300 м
[Sc]
+19.2 +7.6 47 +20 +20 1013.5 1012.8
18 15.11 штиль 0 15 км 8/8 1380 м
[Sc]
+15.4 +9.5 68 +15 +15 1013.8 1013.0 +20.8
06 16.11 ЮВ 10 15 км в посл. час дождь 10/10 1200 м
[Sc]
+15.2 +10.2 72 +13 +13 1011.6 1010.8 +13.6 4
09 16.11 СВ 12 20 км в посл. час дождь 10/10 1080 м
[Sc]
+14.8 +9.4 70 +12 +12 1013.1 1012.4
12 16.11 СВ 8 20 км {дождь} 10/10 1200 м
[Sc]
+17.0 +8.9 59 +16 +16 1013.3 1012.6 2
15 16.11 СЗ 6 20 км 8/8 1300 м
[Sc]
+18.2 +8.1 52 +18 +18 1011.8 1011.1
18 16.11 Ю 4 12 км 8/8 1300 м
[Sc]
+14.0 +9.7 75 +13 +13 1012.3 1011.5 +19.6 2
21 16.11 штиль 0 10 км 4/4 1300 м
[Sc]
+12.6 +7.5 71 +12 +12 1012.9 1012.2
06 17.11 СВ 8 12 км 6/6 1200 м
[Sc]
+14.4 +6.8 60 +12 +12 1009.8 1009.0 +12.2
09 17.11 СВ 8 15 км 10/10 1200 м
[Sc]
+15.2 +7.5 60 +13 +13 1010.8 1010.1
12 17.11 СВ 6 20 км 10/10 1200 м
[Sc]
+16.8 +8.5 58 +16 +16 1010.3 1009.6
15 17.11 СВ 6 20 км 10/10 1300 м
[Sc]
+16.0 +9.4 65 +15 +15 1009.6 1008.9
18 17.11 штиль 0 10 км {дождь} 10/10 1080 м
[Sc]
+13.8 +10.9 83 +13 +13 1009.5 1008.8 +17.4 0.2
06 18.11 СВ 10 15 км {дождь} 10/10 1200 м
[Sc]
+14.4 +8.1 66 +12 +12 1008.8 1008.1 +12.0 0.4
09 18.11 ЮВ 6 20 км 10/10 1200 м
[Sc]
+15.0 +9.2 68 +13 +13 1009.9 1009.2
12 18.11 штиль 0 20 км 10/10 1300 м
[Sc]
+16.8 +11.6 71 +17 +17 1009.9 1009.2
15 18.11 ЮЗ 2 20 км 10/10 1200 м
[Sc]
+16.4 +10.9 70 +17 +17 1009.6 1008.9
18 18.11 штиль 0 15 км 10/10 1200 м
[Sc]
+14.2 +11.2 82 +14 +14 1009.8 1009.1 +17.4
21 18.11 СВ 2 12 км 5/5 1380 м
[Sc]
+12.2 +9.9 86 +11 +11 1010.8 1010.1
06 19.11 СВ 2 15 км в посл. час дождь 10/10 1200 м
[Sc]
+12.4 +11.2 92 +11 +11 1010.5 1009.8 +11.4 8
09 19.11 СВ 2 20 км в посл. час дождь 10/10 1200 м
[Sc]
+13.4 +11.5 88 +13 +13 1011.7 1011.0
12 19.11 ЮЗ 4 20 км {дождь} 9/9 1300 м
[Sc]
+15.6 +11.5 77 +15 +15 1011.1 1010.4 4
15 19.11 СЗ 4 20 км 9/9 1200 м
[Sc]
+14.8 +9.8 72 +14 +14 1010.0 1009.3
18 19.11 штиль 0 12 км 8/8 1300 м
[Sc]
+12.4 +9.3 81 +12 +12 1010.6 1009.9 +16.2 4
21 19.11 штиль 0 10 км 6/6 1300 м
[Sc]
+10.8 +9.5 92 +10 +10 1011.2 1010.4
06 20.11 штиль 0 12 км в посл. час дождь 10/10 1200 м
[Sc]
+8.6 +4.8 77 +8 +8 1011.6 1010.9 +8.0 12
09 20.11 СВ 8 20 км 3/3 1380 м
[Cu med, cong]
+10.0 +6.1 77 +6 +7 1013.6 1012.8
12 20.11 СВ 10 20 км 3/3 1380 м
[Cu med, cong]
+13.4 +0.8 42 +11 +11 1015.4 1014.7
15 20.11 СЗ 12 20 км 3/3 1380 м
[Cu med, cong]
+13.4 -1.0 37 +10 +10 1016.3 1015.6
18 20.11 СВ 6 12 км 3/3 1380 м
[Cu med, cong]
+10.4 -3.7 37 +8 +8 1018.4 1017.6 +14.2
21 20.11 СВ 4 10 км ясно +8.6 -3.9 41 +6 +6 1019.3 1018.6
06 21.11 СВ 4 15 км ясно +6.8 -3.1 49 +4 +4 1020.9 1020.1 +6.2
09 21.11 СВ 4 20 км 3/0
[Ci fib]
+9.6 -0.9 48 +7 +10 1021.5 1020.8
12 21.11 СВ 4 20 км ясно +14.2 -3.5 29 +13 +16 1021.5 1020.7
15 21.11 СВ 2 20 км ясно +14.8 -1.8 32 +15 +15 1020.6 1019.9
18 21.11 СВ 2 15 км 3/0
[Ci fib]
+10.2 -1.8 43 +9 +9 1021.4 1020.6 +15.4
21 21.11 штиль 0 12 км ясно +5.8 -0.5 64 +5 +5 1021.6 1020.8
06 22.11 В 4 15 км ясно +6.2 +0.3 66 +3 +3 1021.7 1021.0 +4.2

 

Местоположение метеостанции Vlore (Албания): широта 40.47 долгота 19.48 высота над уровнем моря 1 м.

В архиве по умолчанию представлена погода в Vlore за последнюю неделю. Архивные данные за месяц целиком и за предыдущие месяцы, начиная с января 2011 года, Вы можете получить, выбрав интересующий диапазон дат из раскрывающегося списка и нажав кнопку "Ввод!".

Внимание! Время в таблицах - всемирное. Для получения местного времени необходимо прибавить поправку, которая в Vlore равна 1 ч.

Смотрите также архив погоды в соседних городах и на ближайших метеорологических станциях:

Погода в Sazan Island (Албания) (17 км)
Погода в Qyteti Stalin (Албания) (51 км)
Погода в Gjirokastra (Албания) (72 км)
Погода в Saranda (Албания) (79 км)
Погода в Durres (Албания) (92 км)
Погода в Otranto (Италия) (94 км)
Погода в Elbasan (Албания) (96 км)
Погода в Tirana (Албания) (99 км)
Погода в Tirana Lapraka (Албания) (102 км)
Погода в Kerkyra (Греция) (102 км)

Пояснения к столбцам:

Ветер - указаны скорость ветра в м/с - средняя за 10 мин, порывы в срок и между сроками (в фигурных скобках) и направление, откуда дует ветер: С - северный, СВ - северо-восточный, В - восточный, ЮВ - юго-восточный, Ю - южный, ЮЗ - юго-западный, З - западный, СЗ - северо-западный.
Видимость - горизонтальная дальность видимости в метрах или километрах. При видимости от 1 до 10 км при отсутствии осадков обычно наблюдается дымка, при ухудшении видимости до 1 км и менее - туман. В сухую погоду видимость может ухудшаться дымом, пылью или мглою.
Явления - указаны атмосферные явления, наблюдавшиеся в срок или в последний час перед сроком; фигурными скобками обозначены явления, наблюдавшиеся между сроками (за 1-3 часа до срока); квадратными скобками обозначены град или гололедные отложения с указанием их диаметра в мм.
Облачность - указаны через наклонную черту общая и нижняя облачность в баллах и высота нижней границы облаков в метрах; квадратными скобками обозначены формы облаков: Ci - перистые, Cs - перисто-слоистые, Cc - перисто-кучевые, Ac - высококучевые, As - высокослоистые, Sc - слоисто-кучевые, Ns - слоисто-дождевые, Cu - кучевые, Cb - кучево-дождевые. Подробнее классификацию облаков см. в Атласе облаков (PDF).
T - Температура воздуха - температура, измеренная на высоте 2 м над землей.
Td - Температура точки росы - температура, при понижении до которой содержащийся в воздухе водяной пар достигнет насыщения.
f - Относительная влажность воздуха - влажноcть воздуха, измеренная на высоте 2 м над землей.
Te - Эффективная температура - температура, которую ощущает одетый по сезону человек в тени. Характеристика душности погоды. При расчете учитывается влияние влажности воздуха и скорости ветра на теплоощущения человека.
Tes - Эффективная температура на солнце - температура, которую ощущает человек, с поправкой на солнечный нагрев. Характеристика знойности погоды. Зависит от высоты солнца над горизонтом, облачности и скорости ветра. Ночью, в пасмурную погоду, а также при ветре 12 м/с и более поправка равна нулю.
P - Атмосферное давление - приведенное к уровню моря атмосферное давление.
Po - Атмосферное давление - измеренное на уровне метеостанции атмосферное давление.
Tmin - Минимальная температура - минимум температуры воздуха на высоте 2 м над землей.
Tmax - Максимальная температура - максимум температуры воздуха на высоте 2 м над землей.
R - Количество осадков - Количество выпавших осадков за период времени, мм. При наведении курсора мыши на число - период времени, за который выпало указанное количество осадков.
R24 - Количество осадков - Количество выпавших осадков за 24 часа, мм.
S - Снежный покров - Высота снежного покрова, см. При наведении курсора мыши на число - состояние снежного покрова и степень покрытия местности в баллах.